Change the Weather History Date:

Sunday, February 22, 2015

  Actual Average Record
Temperature  
Mean Temperature 34 °F -  
Max Temperature 39 °F 45 °F 64 °F (2003)
Min Temperature 30 °F 28 °F 12 °F (1999)
Degree Days  
Heating Degree Days 30    
Moisture  
Dew Point 35 °F    
Average Humidity 100    
Maximum Humidity 100    
Minimum Humidity 93    
Precipitation  
Precipitation 0.01 in - - ()
Sea Level Pressure  
Sea Level Pressure 30.16 in    
Wind  
Wind Speed 4 mph (NNW)    
Max Wind Speed 9 mph    
Max Gust Speed -    
Visibility 1 miles    
Events Fog , Rain    
Averages and records for this station are not official NWS values.
T = Trace of Precipitation, MM = Missing Value Source: NWS Daily Summary

Daily Weather History Graph

Daily Weather History Graph

Search for Another Location

Airport or City:

Trip Planner

Search our weather history database for the weather conditions in past years. The results will help you decide how hot, cold, wet, or windy it might be!

Date:

Astronomy

Feb. 22, 2015 Rise Set
Actual Time 7:10 AM EST 6:17 PM EST
Civil Twilight 6:44 AM EST 6:43 PM EST
Nautical Twilight 6:14 AM EST 7:13 PM EST
Astronomical Twilight 5:44 AM EST 7:43 PM EST
Moon 9:27 AM EST (2/22) 10:51 PM EST (2/22)
Length of Visible Light 11h 59m
Length of Day
11h 06m
Waxing Crescent, 19% of the Moon is Illuminated
Feb 22
Waxing Crescent
Feb 25
First Quarter
Mar 5
Full
Mar 13
Last Quarter
Mar 20
New

Hourly Weather History & Observations

Time (EST) Temp. Windchill Dew Point Humidity Pressure Visibility Wind Dir Wind Speed Gust Speed Precip Events Conditions
12:15 AM 37.4 °F 31.4 °F 37.4 °F 100% 30.02 in 10.0 mi South 8.1 mph - N/A   Light Drizzle
12:35 AM 37.4 °F 32.8 °F 37.4 °F 100% 30.03 in 10.0 mi WSW 5.8 mph - N/A   Overcast
12:55 AM 37.4 °F 34.9 °F 37.4 °F 100% 30.03 in 10.0 mi West 3.5 mph - N/A Rain Rain
1:15 AM 37.4 °F - 37.4 °F 100% 30.04 in 5.0 mi Calm Calm - N/A Rain Light Rain
1:35 AM 37.4 °F 33.8 °F 37.4 °F 100% 30.05 in 3.0 mi West 4.6 mph - N/A Rain Light Rain
1:55 AM 37.4 °F 33.8 °F 37.4 °F 100% 30.05 in 1.2 mi WSW 4.6 mph - N/A Rain Rain
2:15 AM 37.4 °F 33.8 °F 37.4 °F 100% 30.05 in 0.5 mi WSW 4.6 mph - 0.01 in Rain Light Rain
2:35 AM 37.4 °F 33.8 °F 37.4 °F 100% 30.06 in 0.8 mi WSW 4.6 mph - 0.01 in Rain Light Rain
2:55 AM 37.4 °F 33.8 °F 37.4 °F 100% 30.05 in 3.0 mi SW 4.6 mph - 0.01 in   Light Drizzle
3:15 AM 37.4 °F - 37.4 °F 100% 30.05 in 0.8 mi Calm Calm - N/A   Overcast
3:35 AM 37.4 °F 32.8 °F 37.4 °F 100% 30.06 in 4.0 mi West 5.8 mph - N/A   Overcast
3:55 AM 37.4 °F 34.9 °F 37.4 °F 100% 30.05 in 7.0 mi WNW 3.5 mph - N/A   Overcast
4:15 AM 37.4 °F - 37.4 °F 100% 30.07 in 1.2 mi Calm Calm - N/A   Overcast
4:35 AM 37.4 °F - 37.4 °F 100% 30.07 in 0.5 mi Calm Calm - N/A Fog Fog
4:55 AM 37.4 °F - 37.4 °F 100% 30.07 in 0.8 mi Calm Calm - N/A   Overcast
5:15 AM 37.4 °F - 37.4 °F 100% 30.08 in 1.5 mi Calm Calm - N/A   Overcast
5:35 AM 37.4 °F - 37.4 °F 100% 30.09 in 0.2 mi Calm Calm - N/A Fog Fog
5:55 AM 37.4 °F 34.9 °F 37.4 °F 100% 30.10 in 0.2 mi North 3.5 mph - N/A Fog Fog
6:15 AM 37.4 °F 34.9 °F 37.4 °F 100% 30.10 in 0.2 mi NNW 3.5 mph - N/A Fog Fog
6:35 AM 37.4 °F 34.9 °F 37.4 °F 100% 30.11 in 0.2 mi North 3.5 mph - N/A Fog Fog
6:55 AM 37.4 °F 34.9 °F 37.4 °F 100% 30.12 in 0.2 mi North 3.5 mph - N/A Fog Fog
7:15 AM 35.6 °F 32.8 °F 35.6 °F 100% 30.12 in 0.2 mi North 3.5 mph - N/A Fog Fog
7:35 AM 35.6 °F - 35.6 °F 100% 30.12 in 0.2 mi Calm Calm - N/A Fog Fog
7:55 AM 35.6 °F 32.8 °F 35.6 °F 100% 30.13 in 0.2 mi North 3.5 mph - N/A Fog Fog
8:15 AM 35.6 °F - 35.6 °F 100% 30.14 in 0.2 mi Calm Calm - N/A Fog Fog
8:35 AM 35.6 °F - 35.6 °F 100% 30.15 in 0.2 mi Calm Calm - N/A Fog Fog
8:55 AM 35.6 °F 32.8 °F 35.6 °F 100% 30.16 in 0.2 mi NNE 3.5 mph - N/A Fog Fog
9:15 AM 35.6 °F - 35.6 °F 100% 30.16 in 0.2 mi Calm Calm - N/A Fog Fog
9:35 AM 35.6 °F 32.8 °F 35.6 °F 100% 30.17 in 0.2 mi North 3.5 mph - N/A Fog Fog
9:50 AM 37.4 °F - 37.4 °F 100% 30.17 in 0.2 mi Calm Calm - N/A Fog Fog
10:15 AM 35.6 °F 30.7 °F 35.6 °F 100% 30.19 in 0.2 mi North 5.8 mph - N/A Fog Fog
10:35 AM 37.4 °F 33.8 °F 37.4 °F 100% 30.19 in 0.2 mi North 4.6 mph - N/A Fog Fog
10:55 AM 37.4 °F 34.9 °F 37.4 °F 100% 30.20 in 0.2 mi North 3.5 mph - N/A Fog Fog
11:15 AM 37.4 °F 34.9 °F 37.4 °F 100% 30.19 in 0.2 mi NE 3.5 mph - N/A Fog Fog
11:35 AM 37.4 °F 34.9 °F 37.4 °F 100% 30.19 in 0.2 mi NNE 3.5 mph - N/A Fog Fog
11:55 AM 37.4 °F 34.9 °F 37.4 °F 100% 30.19 in 0.2 mi NNE 3.5 mph - N/A Fog Fog
12:15 PM 39.2 °F 37.0 °F 37.4 °F 93% 30.18 in 0.2 mi NNE 3.5 mph - N/A Fog Fog
12:35 PM 37.4 °F - 37.4 °F 100% 30.18 in 0.2 mi Calm Calm - N/A Fog Fog
12:55 PM 39.2 °F 37.0 °F 37.4 °F 93% 30.18 in 0.2 mi NNE 3.5 mph - N/A Fog Fog
1:15 PM 37.4 °F 34.9 °F 37.4 °F 100% 30.18 in 0.2 mi North 3.5 mph - N/A Fog Fog
1:55 PM 37.4 °F 33.8 °F 37.4 °F 100% 30.17 in 0.2 mi North 4.6 mph - N/A Fog Fog
2:15 PM 37.4 °F 32.8 °F 37.4 °F 100% 30.17 in 0.2 mi North 5.8 mph - N/A Fog Fog
2:35 PM 37.4 °F 32.1 °F 37.4 °F 100% 30.17 in 0.2 mi North 6.9 mph - N/A Fog Fog
2:55 PM 37.4 °F 32.1 °F 37.4 °F 100% 30.18 in 0.2 mi North 6.9 mph - N/A Fog Fog
3:15 PM 35.6 °F 29.9 °F 35.6 °F 100% 30.19 in 0.2 mi North 6.9 mph - N/A Fog Fog
3:35 PM 35.6 °F 29.9 °F 35.6 °F 100% 30.18 in 0.2 mi North 6.9 mph - N/A Fog Fog
3:55 PM 35.6 °F 31.7 °F 35.6 °F 100% 30.18 in 0.2 mi North 4.6 mph - N/A Fog Fog
4:15 PM 35.6 °F 30.7 °F 35.6 °F 100% 30.19 in 0.2 mi North 5.8 mph - N/A Fog Fog
4:35 PM 35.6 °F 30.7 °F 35.6 °F 100% 30.19 in 0.2 mi North 5.8 mph - N/A Fog Fog
4:55 PM 33.8 °F 29.6 °F 33.8 °F 100% 30.20 in 0.2 mi North 4.6 mph - N/A Fog Fog
5:15 PM 33.8 °F 29.6 °F 33.8 °F 100% 30.20 in 0.2 mi North 4.6 mph - N/A Fog Fog
5:35 PM 33.8 °F 27.7 °F 33.8 °F 100% 30.20 in 0.2 mi North 6.9 mph - N/A Fog Fog
5:55 PM 33.8 °F 27.0 °F 33.8 °F 100% 30.21 in 0.2 mi North 8.1 mph - N/A Fog Fog
6:15 PM 32.0 °F 25.6 °F 32.0 °F 100% 30.22 in 0.2 mi North 6.9 mph - N/A Fog Fog
6:35 PM 32.0 °F 25.6 °F 32.0 °F 100% 30.23 in 0.2 mi North 6.9 mph - N/A Fog Fog
6:55 PM 32.0 °F 27.5 °F 32.0 °F 100% 30.24 in 0.2 mi NNW 4.6 mph - N/A Fog Fog
7:15 PM 32.0 °F 25.6 °F 32.0 °F 100% 30.25 in 0.2 mi North 6.9 mph - N/A Fog Fog
7:35 PM 32.0 °F 27.5 °F 32.0 °F 100% 30.27 in 0.2 mi North 4.6 mph - N/A Fog Fog
7:55 PM 32.0 °F 25.6 °F 32.0 °F 100% 30.26 in 0.2 mi North 6.9 mph - N/A Fog Fog
8:15 PM 32.0 °F 26.4 °F 32.0 °F 100% 30.26 in 0.2 mi NNW 5.8 mph - N/A Fog Fog
8:35 PM 32.0 °F 24.8 °F 32.0 °F 100% 30.26 in 0.2 mi North 8.1 mph - N/A Fog Fog
8:55 PM 32.0 °F 25.6 °F 32.0 °F 100% 30.26 in 0.2 mi North 6.9 mph - N/A Fog Light Freezing Fog
9:15 PM 32.0 °F 25.6 °F 32.0 °F 100% 30.26 in 0.2 mi North 6.9 mph - N/A Fog Light Freezing Fog
9:35 PM 32.0 °F 26.4 °F 32.0 °F 100% 30.27 in 0.2 mi North 5.8 mph - N/A Fog Light Freezing Fog
9:55 PM 32.0 °F 27.5 °F 32.0 °F 100% 30.27 in 0.2 mi North 4.6 mph - N/A Fog Light Freezing Fog
10:15 PM 30.2 °F 22.6 °F 30.2 °F 100% 30.28 in 0.2 mi North 8.1 mph - N/A Fog Light Freezing Fog
10:35 PM 30.2 °F 23.4 °F 30.2 °F 100% 30.28 in 0.2 mi North 6.9 mph - N/A Fog Light Freezing Fog
10:55 PM 30.2 °F 22.6 °F 30.2 °F 100% 30.28 in 0.2 mi North 8.1 mph - N/A Fog Light Freezing Fog
11:15 PM 30.2 °F 21.9 °F 30.2 °F 100% 30.27 in 0.2 mi North 9.2 mph - N/A Fog Light Freezing Fog
11:35 PM 30.2 °F 21.9 °F 30.2 °F 100% 30.28 in 0.2 mi North 9.2 mph - N/A Fog Light Freezing Fog
11:55 PM 30.2 °F 25.4 °F 30.2 °F 100% 30.28 in 0.2 mi North 4.6 mph - N/A Fog Light Freezing Fog